Location: Newark
(37.9000°S, 166.5167°W)
Time: 06:02:57
(UTC+00:00)

Hubble Space Telescope - Visible Passes

Search period start: 23 January 2020 00:00
Search period end: 02 February 2020 00:00
Orbit: 536 x 540 km, 28.5° (Epoch: 22 January)

Date Brightness Start Highest point End Pass type
(mag) Time Alt. Az. Time Alt. Az. Time Alt. Az.
24 Jan 3.0 07:34:02 10° N 07:34:31 11° N 07:34:31 11° N visible
25 Jan 2.7 07:22:29 10° N 07:24:26 13° NNE 07:25:04 13° NNE visible
26 Jan 2.6 07:11:17 10° NNW 07:13:41 15° NNE 07:15:25 12° NE visible
27 Jan 2.5 07:00:15 10° NNW 07:02:57 17° NNE 07:05:36 10° NE visible
27 Jan 3.1 08:40:18 10° NW 08:40:57 13° NW 08:40:57 13° NW visible
28 Jan 2.4 06:49:18 10° NW 06:52:14 19° N 06:55:10 10° NE visible
28 Jan 2.8 08:29:37 10° NW 08:31:01 16° NW 08:31:01 16° NW visible
29 Jan 2.6 08:18:58 10° NW 08:20:58 19° NNW 08:20:58 19° NNW visible
30 Jan 2.5 08:08:22 10° NW 08:10:52 19° NNW 08:10:52 19° NNW visible
31 Jan 2.5 07:57:49 10° NW 08:00:42 18° N 08:00:43 18° N visible
01 Feb 2.6 07:47:19 10° NW 07:49:59 17° NNW 07:50:34 16° N visible
